Weather History for KNEW - September, 2013

Change the Weather History Date:

Friday, September 27, 2013

  Actual Average Record
Temperature  
Mean Temperature 79 °F 77 °F  
Max Temperature 88 °F 85 °F 93 °F (1955)
Min Temperature 70 °F 69 °F 52 °F (1975)
Degree Days  
Heating Degree Days 0 0  
Month to date heating degree days 0 0  
Since 1 July heating degree days 0 0  
Cooling Degree Days 14 12  
Month to date cooling degree days 471 408  
Year to date cooling degree days 2607 2654  
Growing Degree Days 32 (Base 50)    
Moisture  
Dew Point 70 °F    
Average Humidity 75    
Maximum Humidity 97    
Minimum Humidity 53    
Precipitation  
Precipitation 0.00 in 0.12 in 1.57 in (1996)
Month to date precipitation 7.45 4.59  
Year to date precipitation 57.76 48.80  
Snow  
Snow 0.00 in - - ()
Month to date snowfall 0.0  
Since 1 July snowfall 0.0  
Since 1 September snowfall 0.0  
Snow Depth 0.00 in    
Sea Level Pressure  
Sea Level Pressure 29.96 in    
Wind  
Wind Speed 5 mph (East)    
Max Wind Speed 15 mph    
Max Gust Speed 22 mph    
Visibility 10 miles    
Events      
T = Trace of Precipitation, MM = Missing Value Source: NWS Daily Summary

Daily Weather History Graph

Daily Weather History Graph

Search for Another Location

Airport or City:

Trip Planner

Search our weather history database for the weather conditions in past years. The results will help you decide how hot, cold, wet, or windy it might be!

Date:

Astronomy

Sep. 27, 2013 Rise Set
Actual Time 6:51 AM CDT 6:50 PM CDT
Civil Twilight 6:27 AM CDT 7:13 PM CDT
Nautical Twilight 5:59 AM CDT 7:41 PM CDT
Astronomical Twilight 5:31 AM CDT 8:09 PM CDT
Moon 12:10 AM CDT (9/27) 2:06 PM CDT (9/27)
Length of Visible Light 12h 46m
Length of Day
11h 58m
Last Quarter, 45% of the Moon is Illuminated
Sep 27
Last Quarter
Oct 4
New
Oct 11
First Quarter
Oct 18
Full
Oct 26
Last Quarter

Hourly Weather History & Observations

Time (CDT) Temp. Heat Index Dew Point Humidity Pressure Visibility Wind Dir Wind Speed Gust Speed Precip Events Conditions
12:53 AM 81.0 °F 83.3 °F 66.9 °F 62% 29.92 in 10.0 mi North 8.1 mph - N/A   Clear
1:53 AM 80.1 °F 82.9 °F 69.1 °F 69% 29.92 in 10.0 mi NNE 8.1 mph - N/A   Clear
2:53 AM 79.0 °F - 70.0 °F 74% 29.91 in 10.0 mi East 5.8 mph - N/A   Clear
3:53 AM 77.0 °F - 71.1 °F 82% 29.91 in 10.0 mi Calm Calm - N/A   Clear
4:53 AM 77.0 °F - 72.0 °F 84% 29.92 in 10.0 mi ENE 5.8 mph - N/A   Clear
5:53 AM 78.1 °F - 73.0 °F 84% 29.94 in 10.0 mi ENE 6.9 mph - N/A   Clear
6:53 AM 78.1 °F - 73.9 °F 87% 29.96 in 8.0 mi East 6.9 mph - N/A   Clear
7:53 AM 79.0 °F - 73.9 °F 84% 29.98 in 9.0 mi East 9.2 mph - N/A   Partly Cloudy
8:53 AM 81.0 °F 86.2 °F 73.9 °F 79% 29.99 in 10.0 mi East 9.2 mph - N/A   Partly Cloudy
9:53 AM 84.0 °F 88.4 °F 70.0 °F 63% 30.00 in 10.0 mi East 10.4 mph - N/A   Scattered Clouds
10:53 AM 86.0 °F 90.1 °F 69.1 °F 57% 30.00 in 10.0 mi East 10.4 mph - N/A   Mostly Cloudy
11:53 AM 84.9 °F 89.4 °F 70.0 °F 61% 29.99 in 10.0 mi ESE 12.7 mph 18.4 mph N/A   Scattered Clouds
12:53 PM 86.0 °F 90.1 °F 69.1 °F 57% 29.98 in 10.0 mi East 12.7 mph - N/A   Scattered Clouds
1:53 PM 86.0 °F 91.5 °F 71.1 °F 61% 29.96 in 10.0 mi East 11.5 mph - N/A   Mostly Cloudy
2:53 PM 86.0 °F 90.7 °F 70.0 °F 59% 29.95 in 10.0 mi East 12.7 mph - N/A   Scattered Clouds
3:53 PM 84.9 °F 89.4 °F 70.0 °F 61% 29.94 in 10.0 mi East 13.8 mph - N/A   Clear
4:53 PM 84.0 °F 87.8 °F 69.1 °F 61% 29.95 in 10.0 mi ESE 11.5 mph - N/A   Partly Cloudy
5:53 PM 82.9 °F 85.8 °F 68.0 °F 60% 29.96 in 10.0 mi ESE 12.7 mph - N/A   Mostly Cloudy
6:53 PM 82.0 °F 84.9 °F 68.0 °F 62% 29.96 in 10.0 mi SE 10.4 mph - N/A   Scattered Clouds
7:53 PM 81.0 °F 84.4 °F 70.0 °F 69% 29.97 in 10.0 mi SE 8.1 mph - N/A   Overcast
8:53 PM 80.1 °F 82.9 °F 69.1 °F 69% 29.99 in 10.0 mi SE 9.2 mph - N/A   Mostly Cloudy
9:53 PM 79.0 °F - 69.1 °F 72% 30.00 in 10.0 mi SE 9.2 mph - N/A   Partly Cloudy
10:53 PM 78.1 °F - 69.1 °F 74% 30.01 in 10.0 mi SE 8.1 mph - N/A   Clear
11:53 PM 78.1 °F - 69.1 °F 74% 30.00 in 9.0 mi ESE 8.1 mph - N/A   Clear